Weather History for MMMZ - May, 2013

Change the Weather History Date:

Saturday, May 25, 2013

  Actual Average Record
Temperature  
Mean Temperature 78 °F -  
Max Temperature 89 °F 86 °F 96 °F (2012)
Min Temperature 66 °F 66 °F 64 °F (2008)
Cooling Degree Days 12    
Growing Degree Days 28 (Base 50)    
Moisture  
Dew Point 63 °F    
Average Humidity 62    
Maximum Humidity 81    
Minimum Humidity 40    
Precipitation  
Precipitation 0.00 in - - ()
Sea Level Pressure  
Sea Level Pressure 29.88 in    
Wind  
Wind Speed 8 mph ()    
Max Wind Speed 21 mph    
Max Gust Speed -    
Visibility 9.2 miles    
Events      
Averages and records for this station are not official NWS values.
T = Trace of Precipitation, MM = Missing Value Source: Averaged Metar Reports

Daily Weather History Graph

Daily Weather History Graph

Search for Another Location

Airport or City:

Trip Planner

Search our weather history database for the weather conditions in past years. The results will help you decide how hot, cold, wet, or windy it might be!

Date:

Astronomy

May. 25, 2013 Rise Set
Actual Time 6:20 AM MDT 7:44 PM MDT
Civil Twilight 5:55 AM MDT 8:08 PM MDT
Nautical Twilight 5:26 AM MDT 8:38 PM MDT
Astronomical Twilight 4:55 AM MDT 9:08 PM MDT
Moon 8:36 PM MDT (5/25) 6:48 AM MDT (5/25)
Length of Visible Light 14h 13m
Length of Day
13h 23m
Waxing Gibbous, 99% of the Moon is Illuminated
May 25
Waxing Gibbous
May 31
Last Quarter
Jun 8
New
Jun 16
First Quarter
Jun 23
Full

Hourly Weather History & Observations

Time (MDT) Temp. Heat Index Dew Point Humidity Pressure Visibility Wind Dir Wind Speed Gust Speed Precip Events Conditions
12:00 AM 76 °F - 70 °F 77% 29.93 in - South 4.5 mph - -  
12:40 AM 68.0 °F - 59.0 °F 73% 29.93 in 10.0 mi East 6.9 mph - N/A   Clear
1:50 AM 68.0 °F - 59.0 °F 73% 29.93 in 10.0 mi ENE 8.1 mph - N/A   Clear
2:40 AM 69.8 °F - 59.0 °F 68% 29.92 in 10.0 mi NE 8.1 mph - N/A   Clear
3:00 AM 74 °F - 69 °F 81% 29.93 in - East 4.5 mph - -  
3:40 AM 68.0 °F - 59.0 °F 73% 29.89 in 10.0 mi NE 8.1 mph - N/A   Scattered Clouds
4:40 AM 68.0 °F - 59.0 °F 73% 29.88 in 10.0 mi NW 6.9 mph - N/A   Clear
5:46 AM 66.2 °F - 59.0 °F 78% 29.87 in 10.0 mi West 8.1 mph - N/A   Clear
6:41 AM 68.0 °F - 59.0 °F 73% 29.89 in 8.0 mi WNW 5.8 mph - N/A   Clear
7:45 AM 71.6 °F - 60.8 °F 69% 29.90 in 8.0 mi West 6.9 mph - N/A   Clear
8:50 AM 77.0 °F - 60.8 °F 57% 29.91 in 8.0 mi WSW 6.9 mph - N/A   Clear
9:00 AM 81 °F - 70 °F 63% 29.93 in - West 4.5 mph - -  
9:43 AM 82.4 °F 83.4 °F 62.6 °F 51% 29.90 in 8.0 mi West 6.9 mph - N/A   Clear
10:40 AM 87.8 °F 88.5 °F 62.6 °F 43% 29.89 in 10.0 mi SW 8.1 mph - N/A   Clear
11:40 AM 89.6 °F 90.1 °F 62.6 °F 40% 29.89 in 10.0 mi WSW 15.0 mph - N/A   Clear
12:49 PM 87.8 °F 89.4 °F 64.4 °F 46% 29.87 in 10.0 mi WSW 17.3 mph - N/A   Clear
1:42 PM 87.8 °F 88.5 °F 62.6 °F 43% 29.85 in 10.0 mi WSW 19.6 mph - N/A   Clear
2:40 PM 87.8 °F 89.4 °F 64.4 °F 46% 29.84 in 10.0 mi WSW 20.7 mph - N/A   Clear
3:46 PM 84.2 °F 85.6 °F 64.4 °F 51% 29.82 in 10.0 mi WSW 20.7 mph - N/A   Clear
4:42 PM 84.2 °F 85.6 °F 64.4 °F 51% 29.81 in 10.0 mi WSW 18.4 mph - N/A   Clear
5:41 PM 82.4 °F 83.9 °F 64.4 °F 54% 29.80 in 10.0 mi WSW 13.8 mph - N/A   Clear
6:43 PM 80.6 °F 82.3 °F 64.4 °F 58% 29.81 in 10.0 mi WSW 13.8 mph - N/A   Clear
7:40 PM 77.0 °F - 62.6 °F 61% 29.84 in 8.0 mi WSW 10.4 mph - N/A   Clear
8:44 PM 75.2 °F - 62.6 °F 65% 29.86 in 8.0 mi WSW 9.2 mph - N/A   Scattered Clouds
9:42 PM 73.4 °F - 64.4 °F 73% 29.89 in 8.0 mi WSW 8.1 mph - N/A   Scattered Clouds
10:46 PM 73.4 °F - 62.6 °F 69% 29.91 in 8.0 mi NW 5.8 mph - N/A   Partly Cloudy
11:45 PM 71.6 °F - 62.6 °F 73% 29.86 in 8.0 mi ESE 6.9 mph - N/A   Partly Cloudy